Location: Namasale
(1.5000°N, 32.6167°E)
Time: 21:52:07
(UTC+00:00)

Tiros 1 - Pass Details

Date: 26 April 2021
Orbit: 630 x 664 km, 48.4° (Epoch: 06 May)

Event Time Altitude Azimuth Distance (km) Brightness Sun altitude
Exits shadow 02:11:25 53° 313° (NW) 804 7.4 -22.9°
Drops below altitude 10° 02:15:57 10° 26° (NNE) 2,043 10.2 -21.8°
Sets 02:18:19 0° 31° (NNE) 2,946 11.2 -21.2°
